Location: B?dargowo
(53.3916°N, 14.4413°E)
Time: 09:01:08
(UTC+00:00)

Cosmos 2074 Rocket - Pass Details

Date: 05 February 2023
Orbit: 967 x 985 km, 82.9° (Epoch: 19 March)

Event Time Altitude Azimuth Distance (km) Brightness Sun altitude
Rises 18:54:07 0° 350° (N) 3,701 7.3 -27.2°
Reaches altitude 10° 18:56:41 10° 353° (N) 2,751 6.5 -27.5°
Enters shadow 19:02:09 61° 34° (NE) 1,114 4.1 -28.3°
